Location: Ecklingerode
(51.5036°N, 10.3122°E)
Time: 01:57:46
(UTC+00:00)

Cosmos 1939 Rocket - Pass Details

Date: 29 October 2020
Orbit: 532 x 584 km, 97.4° (Epoch: 23 November)

Event Time Altitude Azimuth Distance (km) Brightness Sun altitude
Rises 16:55:59 0° 153° (SSE) 2,723 6.2 -9.7°
Reaches altitude 10° 16:58:09 10° 149° (SSE) 1,825 5.3 -10.1°
Maximum altitude 17:02:00 55° 72° (ENE) 661 2.9 -10.7°
Drops below altitude 10° 17:05:50 10° 354° (N) 1,814 5.4 -11.3°
Sets 17:07:58 0° 350° (N) 2,705 6.4 -11.6°
